TimePST,TemperatureF,Dew PointF,Humidity,Sea Level PressureIn,VisibilityMPH,Wind Direction,Wind SpeedMPH,Gust SpeedMPH,PrecipitationIn,Events,Conditions,WindDirDegrees,DateUTC
12:10 AM,32.0,28.4,87,30.29,10.0,NNE,4.6,-,N/A,,Clear,30,2013-01-02 08:10:00
12:30 AM,32.0,30.2,93,30.28,9.0,NE,3.5,-,N/A,,Clear,40,2013-01-02 08:30:00
12:50 AM,32.0,28.4,87,30.29,9.0,NNE,4.6,-,N/A,,Clear,20,2013-01-02 08:50:00
1:10 AM,32.0,28.4,87,30.28,7.0,North,3.5,-,N/A,,Clear,360,2013-01-02 09:10:00
1:30 AM,32.0,28.4,87,30.28,7.0,NE,4.6,-,N/A,,Clear,50,2013-01-02 09:30:00
1:50 AM,32.0,30.2,93,30.28,8.0,ENE,4.6,-,N/A,,Clear,70,2013-01-02 09:50:00
2:10 AM,35.6,32.0,87,30.28,10.0,Calm,Calm,-,N/A,,Clear,0,2013-01-02 10:10:00
2:30 AM,32.0,28.4,87,30.28,10.0,NE,3.5,-,N/A,,Clear,50,2013-01-02 10:30:00
2:50 AM,33.8,30.2,87,30.27,10.0,ENE,5.8,-,N/A,,Clear,70,2013-01-02 10:50:00
3:10 AM,35.6,32.0,87,30.27,9.0,ENE,5.8,-,N/A,,Clear,70,2013-01-02 11:10:00
3:30 AM,33.8,30.2,87,30.26,10.0,ENE,6.9,-,N/A,,Clear,70,2013-01-02 11:30:00
3:50 AM,32.0,28.4,87,30.26,10.0,WNW,5.8,-,N/A,,Clear,290,2013-01-02 11:50:00
4:10 AM,32.0,30.2,93,30.26,10.0,WNW,5.8,-,N/A,,Clear,290,2013-01-02 12:10:00
4:30 AM,32.0,30.2,93,30.26,9.0,West,4.6,-,N/A,,Clear,270,2013-01-02 12:30:00
4:50 AM,32.0,30.2,93,30.25,7.0,Calm,Calm,-,N/A,,Clear,0,2013-01-02 12:50:00
5:10 AM,32.0,30.2,93,30.24,8.0,Calm,Calm,-,N/A,,Clear,0,2013-01-02 13:10:00
5:30 AM,32.0,28.4,87,30.24,8.0,Calm,Calm,-,N/A,,Clear,0,2013-01-02 13:30:00
5:50 AM,30.2,28.4,93,30.24,9.0,NNE,3.5,-,N/A,,Clear,30,2013-01-02 13:50:00
6:10 AM,28.4,28.4,100,30.24,9.0,Calm,Calm,-,N/A,,Clear,0,2013-01-02 14:10:00
6:30 AM,30.2,28.4,93,30.25,9.0,Calm,Calm,-,N/A,,Clear,0,2013-01-02 14:30:00
6:50 AM,30.2,28.4,93,30.25,10.0,NW,4.6,-,N/A,,Clear,320,2013-01-02 14:50:00
7:10 AM,28.4,26.6,93,30.26,8.0,NNW,4.6,-,N/A,,Clear,330,2013-01-02 15:10:00
7:30 AM,28.4,26.6,93,30.27,5.0,North,4.6,-,N/A,,Clear,10,2013-01-02 15:30:00
7:50 AM,28.4,28.4,100,30.26,7.0,NNE,5.8,-,N/A,,Clear,20,2013-01-02 15:50:00
8:10 AM,32.0,28.4,87,30.26,8.0,ENE,3.5,-,N/A,,Clear,60,2013-01-02 16:10:00
8:30 AM,33.8,32.0,93,30.26,9.0,ENE,3.5,-,N/A,,Clear,70,2013-01-02 16:30:00
8:50 AM,35.6,32.0,87,30.27,9.0,WSW,3.5,-,N/A,,Clear,250,2013-01-02 16:50:00
9:10 AM,37.4,32.0,81,30.28,9.0,Calm,Calm,-,N/A,,Clear,0,2013-01-02 17:10:00
9:30 AM,39.2,32.0,75,30.28,8.0,Calm,Calm,-,N/A,,Clear,0,2013-01-02 17:30:00
9:50 AM,41.0,32.0,70,30.29,9.0,Calm,Calm,-,N/A,Rain,Light Rain,0,2013-01-02 17:50:00
10:10 AM,42.8,32.0,66,30.29,9.0,SSW,3.5,-,N/A,,Clear,210,2013-01-02 18:10:00
10:30 AM,44.6,32.0,61,30.29,9.0,Calm,Calm,-,N/A,,Clear,0,2013-01-02 18:30:00
10:50 AM,46.4,32.0,57,30.28,8.0,WSW,5.8,-,N/A,,Clear,240,2013-01-02 18:50:00
11:10 AM,48.2,32.0,54,30.28,10.0,SW,3.5,-,N/A,,Clear,230,2013-01-02 19:10:00
11:30 AM,48.2,32.0,54,30.27,9.0,SW,4.6,-,N/A,Rain,Light Rain,230,2013-01-02 19:30:00
11:50 AM,48.2,32.0,54,30.26,9.0,West,4.6,-,N/A,Rain,Light Rain,270,2013-01-02 19:50:00
12:10 PM,50.0,32.0,50,30.25,10.0,SW,3.5,-,N/A,Rain,Light Rain,220,2013-01-02 20:10:00
12:30 PM,50.0,32.0,50,30.23,10.0,WSW,4.6,-,N/A,Rain,Light Rain,240,2013-01-02 20:30:00
12:50 PM,50.0,32.0,50,30.23,9.0,NW,3.5,-,N/A,Rain,Light Rain,320,2013-01-02 20:50:00
1:10 PM,50.0,32.0,50,30.22,10.0,Calm,Calm,-,N/A,Rain,Light Rain,0,2013-01-02 21:10:00
1:30 PM,51.8,32.0,47,30.22,10.0,West,3.5,-,N/A,,Clear,280,2013-01-02 21:30:00
1:50 PM,51.8,35.6,54,30.21,10.0,WNW,4.6,-,N/A,Rain,Light Rain,300,2013-01-02 21:50:00
2:10 PM,50.0,35.6,58,30.21,10.0,WNW,5.8,-,N/A,Rain,Light Rain,290,2013-01-02 22:10:00
2:30 PM,51.8,35.6,54,30.20,9.0,WNW,4.6,-,N/A,,Clear,300,2013-01-02 22:30:00
2:50 PM,51.8,35.6,54,30.20,9.0,WNW,4.6,-,N/A,Rain,Light Rain,300,2013-01-02 22:50:00
3:10 PM,50.0,33.8,54,30.20,10.0,WNW,5.8,-,N/A,Rain,Light Rain,300,2013-01-02 23:10:00
3:30 PM,50.0,35.6,58,30.19,10.0,NW,4.6,-,N/A,Rain,Light Rain,310,2013-01-02 23:30:00
3:50 PM,50.0,33.8,54,30.19,10.0,NNW,4.6,-,N/A,Rain,Light Rain,330,2013-01-02 23:50:00
4:10 PM,50.0,35.6,58,30.19,10.0,North,6.9,-,N/A,Rain,Light Rain,360,2013-01-03 00:10:00
4:30 PM,46.4,33.8,62,30.19,10.0,North,5.8,-,N/A,Rain,Light Rain,350,2013-01-03 00:30:00
4:50 PM,46.4,32.0,57,30.19,10.0,North,4.6,-,N/A,Rain,Light Rain,350,2013-01-03 00:50:00
5:10 PM,44.6,33.8,66,30.19,10.0,North,4.6,-,N/A,Rain,Light Rain,350,2013-01-03 01:10:00
5:30 PM,46.4,35.6,66,30.18,10.0,NNW,3.5,-,N/A,,Clear,340,2013-01-03 01:30:00
5:50 PM,41.0,33.8,76,30.18,10.0,NNE,5.8,-,N/A,Rain,Light Rain,20,2013-01-03 01:50:00
6:10 PM,41.0,33.8,76,30.18,10.0,North,4.6,-,N/A,Rain,Light Rain,10,2013-01-03 02:10:00
6:30 PM,41.0,33.8,76,30.19,10.0,North,3.5,-,N/A,,Clear,360,2013-01-03 02:30:00
6:50 PM,41.0,33.8,76,30.19,10.0,Calm,Calm,-,N/A,Rain,Light Rain,0,2013-01-03 02:50:00
7:10 PM,41.0,33.8,76,30.18,10.0,Calm,Calm,-,N/A,Rain,Light Rain,0,2013-01-03 03:10:00
7:30 PM,41.0,32.0,70,30.18,10.0,Calm,Calm,-,N/A,Rain,Light Rain,0,2013-01-03 03:30:00
7:50 PM,39.2,32.0,75,30.18,10.0,Calm,Calm,-,N/A,Rain,Light Rain,0,2013-01-03 03:50:00
8:10 PM,39.2,32.0,75,30.19,10.0,Calm,Calm,-,N/A,Rain,Light Rain,0,2013-01-03 04:10:00
8:30 PM,39.2,32.0,75,30.19,10.0,Calm,Calm,-,N/A,Rain,Light Rain,0,2013-01-03 04:30:00
8:50 PM,37.4,32.0,81,30.19,10.0,Calm,Calm,-,N/A,,Clear,0,2013-01-03 04:50:00
9:10 PM,37.4,32.0,81,30.20,10.0,Calm,Calm,-,N/A,Rain,Light Rain,0,2013-01-03 05:10:00
9:30 PM,37.4,32.0,81,30.21,9.0,Calm,Calm,-,N/A,Rain,Light Rain,0,2013-01-03 05:30:00
9:50 PM,35.6,32.0,87,30.21,8.0,Calm,Calm,-,N/A,Rain,Light Rain,0,2013-01-03 05:50:00
10:10 PM,35.6,32.0,87,30.21,9.0,Calm,Calm,-,N/A,,Clear,0,2013-01-03 06:10:00
10:30 PM,35.6,32.0,87,30.21,8.0,ESE,4.6,-,N/A,,Clear,110,2013-01-03 06:30:00
10:50 PM,37.4,32.0,81,30.22,7.0,Calm,Calm,-,N/A,Rain,Light Rain,0,2013-01-03 06:50:00
11:10 PM,35.6,32.0,87,30.22,8.0,Calm,Calm,-,N/A,,Clear,0,2013-01-03 07:10:00
11:30 PM,35.6,32.0,87,30.22,7.0,ESE,3.5,-,N/A,,Clear,110,2013-01-03 07:30:00
11:50 PM,35.6,32.0,87,30.22,7.0,Calm,Calm,-,N/A,,Clear,0,2013-01-03 07:50:00